This is the latest recevied weather packets stored in our database for station/object KF7PIZ. If no packets are shown the sender has not sent any weather packets the latest 10 day(s).
| Time | Temp. | Humidity | Pressure | Rain* | Wind** | Luminosity | Snow |
|---|---|---|---|---|---|---|---|
| 1777534590 | 6.67° C | 57% | 1019.5 hPa | 0 mm | - | 0 W/m² | - |
| 1777534287 | 7.22° C | 57% | 1019.4 hPa | 0 mm | - | 0 W/m² | - |
| 1777533985 | 7.22° C | 56% | 1019.5 hPa | 0 mm | - | 0 W/m² | - |
| 1777533682 | 7.22° C | 55% | 1019.6 hPa | 0 mm | - | 0 W/m² | - |
| 1777533378 | 7.78° C | 56% | 1019.4 hPa | 0 mm | - | 0 W/m² | - |
| 1777533074 | 7.78° C | 53% | 1019.4 hPa | 0 mm | - | 0 W/m² | - |
| 1777532772 | 7.78° C | 55% | 1019.4 hPa | 0 mm | - | 0 W/m² | - |
| 1777532468 | 7.78° C | 50% | 1019.4 hPa | 0 mm | - | 0 W/m² | - |
| 1777532165 | 7.78° C | 52% | 1019.5 hPa | 0 mm | - | 0 W/m² | - |
| 1777531861 | 7.78° C | 53% | 1019.4 hPa | 0 mm | - | 0 W/m² | - |
| 1777531556 | 8.33° C | 52% | 1019.1 hPa | 0 mm | - | 0 W/m² | - |
| 1777531254 | 8.33° C | 51% | 1019.3 hPa | 0 mm | - | 0 W/m² | - |
| 1777530952 | 8.89° C | 52% | 1019.1 hPa | 0 mm | - | 0 W/m² | - |
| 1777530649 | 8.89° C | 51% | 1019.1 hPa | 0 mm | - | 0 W/m² | - |
| 1777530346 | 9.44° C | 49% | 1019.1 hPa | 0 mm | - | 0 W/m² | - |
| 1777530042 | 9.44° C | 49% | 1019.1 hPa | 0 mm | - | 0 W/m² | - |
| 1777529740 | 9.44° C | 49% | 1019 hPa | 0 mm | - | 0 W/m² | - |
| 1777529436 | 9.44° C | 50% | 1018.9 hPa | 0 mm | - | 0 W/m² | - |
| 1777529133 | 10° C | 52% | 1019.1 hPa | 0 mm | - | 0 W/m² | - |
| 1777528829 | 10° C | 51% | 1019 hPa | 0 mm | - | 0 W/m² | - |
| 1777528526 | 10° C | 49% | 1019.1 hPa | 0 mm | - | 0 W/m² | - |
| 1777528224 | 10° C | 45% | 1019.1 hPa | 0 mm | - | 0 W/m² | - |
| 1777527921 | 10.56° C | 45% | 1019 hPa | 0 mm | - | 0 W/m² | - |
| 1777527617 | 10.56° C | 44% | 1018.9 hPa | 0 mm | - | 0 W/m² | - |
| 1777527312 | 11.11° C | 43% | 1018.9 hPa | 0 mm | - | 0 W/m² | - |
* Rain latest hour (hover to see other rain measurements)
** Current wind speed in m/s (hover to see current wind gust speed)